Regional Weather Roundup
Issued by NWS

Home | Current Version | Previous Version | Graphics & Text | Print | Product List | Glossary Off
Versions: 1 2 3 4 5 6 7 8 9 10 11 12 13 14 15 16 17 18 19 20 21 22 23 24 25 26 27 28 29 30 31 32 33 34 35 36 37 38 39 40 41 42 43 44 45 46 47 48 49 50

000
ASUS43 KTOP 010108
RWRKS

WEATHER ROUNDUP FOR KANSAS
NATIONAL WEATHER SERVICE GOODLAND KS
800 PM CDT MON AUG 31 2015

NOTE:  "FAIR" INDICATES FEW OR NO CLOUDS BELOW 12,000 FEET WITH NO
SIGNIFICANT WEATHER AND/OR OBSTRUCTIONS TO VISIBILITY.

KSZ001>006-013>018-027>032-041>047-010200-
NORTHWEST KANSAS

CITY           SKY/WX    TMP DP  RH WIND       PRES   REMARKS
GOODLAND       PTCLDY    85  50  29 SE6       29.92S
HAYS           CLEAR     90  52  27 S13       29.87S
HILL CITY      CLEAR     91  50  24 S9        29.86S
RUSSELL        CLEAR     89  56  32 S12       29.86S
$$

KSZ061>065-074>080-084>089-010200-
SOUTHWEST KANSAS

CITY           SKY/WX    TMP DP  RH WIND       PRES   REMARKS
DODGE CITY     CLEAR     85  49  28 S12       29.91S
ELKHART          N/A     80  57  45 SE12        N/A
GARDEN CITY    CLEAR     83  55  38 SE9       29.89S
GREAT BEND     CLEAR     88  54  31 SE12      29.88S
LIBERAL        CLEAR     86  48  26 S13       29.93R
PRATT          CLEAR     88  50  27 MISG      29.92S
$$

KSZ066>073-081>083-090>101-010200-
SOUTHEAST KANSAS

CITY           SKY/WX    TMP DP  RH WIND       PRES   REMARKS
CHANUTE        CLEAR     80  70  71 S8        29.97R
COFFEYVILLE    CLEAR     80  71  74 SE8       29.96R
HUTCHINSON     CLEAR     79  64  60 E8        29.90S
MEDICINE LODGE   N/A     88  55  32 S7        29.89S
NEWTON         CLEAR     82  63  51 SE10      29.95S
PARSONS        CLEAR     80  72  76 SE5       29.98R
WICHITA INTL   PTCLDY    85  65  51 SE12      29.90S
WICHITA JABRA  PTCLDY    83  64  52 SE13      29.92R
WICHITA MCCONL CLEAR     84  65  52 SE13      29.91S
WINFIELD       CLEAR     84  65  52 S13       29.94R
$$

KSZ007>012-019>026-033>040-048>060-102>105-010200-
NORTHEAST KANSAS

CITY           SKY/WX    TMP DP  RH WIND       PRES   REMARKS
CONCORDIA      CLEAR     79  64  60 S9        29.89S
EMPORIA        CLEAR     82  67  60 S13       29.94R
LAWRENCE       CLEAR     80  71  74 E6        29.94R
MANHATTAN      CLEAR     83  69  62 S5        29.90R
MARYSVILLE     CLEAR    N/A N/A N/A S9        29.89F
OLATHE IND     CLEAR     80  71  74 SE8       29.96S
OLATHE EXE     CLEAR     80  71  74 S8        29.96R
SALINA         CLEAR     85  65  51 SE9       29.88S
TOPEKA BILLARD CLEAR     80  71  74 E7        29.92S
TOPEKA FORBES  CLEAR     82  71  69 SE8       29.93S
$$


USA.gov is the U.S. government's official web portal to all federal, state and local government web resources and services.